Temp
-1 -1 -0 0 0 0 1 1 1 2 2 2 2 1 3 2 2 3 2 3 3 3 3 2 2 2 2 2 2 2 2 2 2 1 1 1 1 1 1 1 2 1 1
-2 -2 -1 -1 -1 -1 -0 0 0 1 1 1 1 1 2 2 1 2 2 0 2 2 3 2 2 2 2 2 2 2 2 2 1 1 1 1 1 1 1 1 1 1 1
-3 -3 -2 -1 -2 -1 -1 -0 0 0 1 1 1 0 -0 0 1 1 1 1 1 1 2 2 2 2 2 1 2 2 2 2 1 1 1 1 1 1 1 1 0 1 0
-4 -3 -3 -3 -2 -1 -1 -1 -0 -0 0 1 0 0 0 -1 0 -0 1 0 0 0 2 2 1 1 2 1 1 1 1 1 1 1 1 1 2 1 1 1 1 1 1
-6 -5 -5 -3 -3 -2 -2 -2 -2 -2 -2 -0 0 -0 -0 -1 -0 -0 0 0 1 -0 0 0 -0 -0 1 0 1 1 1 1 1 1 1 1 1 1 1 0 0 1 0
-7 -6 -6 -5 -5 -4 -4 -3 -3 -2 -2 -2 -1 -1 -1 -1 -1 -2 -0 -0 -0 -0 0 -0 -0 0 -0 -1 -0 1 0 1 1 1 1 1 1 0 0 0 -0 -0 -0
-8 -7 -7 -7 -7 -6 -6 -5 -4 -4 -3 -3 -2 -2 -2 -1 -1 -2 -1 -1 -1 -1 -1 -1 -1 -0 -0 -0 0 -0 0 -0 -1 -0 0 0 1 0 0 -1 0 -1 -1
-9 -9 -9 -8 -8 -7 -7 -6 -6 -5 -4 -4 -4 -4 -3 -3 -2 -2 -2 -3 -2 -2 -1 -1 -1 -0 -1 -1 -0 -1 -1 -1 -0 0 -1 -0 -0 -0 -1 -1 -1 -0 -1
-11 -11 -10 -10 -9 -9 -8 -8 -7 -7 -6 -7 -6 -6 -5 -5 -4 -4 -4 -4 -4 -2 -2 -2 -1 -2 -2 -2 -1 -1 -1 -1 -1 -1 -1 -0 -0 -0 -1 -0 -1 -0 -1
-13 -12 -12 -11 -11 -11 -10 -9 -9 -8 -9 -9 -8 -8 -8 -7 -7 -7 -6 -5 -5 -4 -4 -3 -2 -2 -2 -1 -2 -2 -2 -2 -2 -1 -1 -2 -1 -1 -1 -1 -1 -1 -1
-15 -14 -14 -13 -13 -12 -11 -11 -10 -10 -10 -9 -9 -9 -9 -8 -8 -7 -7 -7 -6 -6 -5 -4 -4 -4 -4 -2 -3 -3 -2 -3 -3 -2 -2 -2 -2 -1 -1 -2 -1 -2 -2
-17 -16 -15 -15 -14 -14 -14 -13 -12 -12 -11 -11 -11 -10 -10 -9 -9 -9 -8 -8 -7 -7 -6 -5 -5 -5 -4 -4 -4 -4 -4 -3 -4 -3 -3 -2 -2 -3 -2 -2 -2 -2 -1
-17 -17 -16 -16 -16 -15 -14 -14 -14 -13 -12 -12 -12 -12 -11 -11 -11 -10 -10 -9 -9 -8 -8 -7 -7 -6 -6 -6 -6 -5 -4 -4 -4 -4 -4 -4 -4 -4 -3 -4 -3 -2 -3
-18 -17 -17 -17 -17 -16 -16 -15 -15 -14 -13 -13 -13 -12 -12 -12 -12 -11 -11 -11 -11 -10 -10 -9 -9 -9 -8 -8 -7 -6 -6 -6 -5 -5 -5 -4 -5 -5 -5 -5 -5 -5 -4
-19 -18 -18 -17 -17 -17 -17 -16 -15 -14 -14 -13 -13 -13 -13 -13 -12 -12 -12 -12 -12 -12 -11 -11 -11 -10 -10 -10 -9 -9 -8 -8 -8 -7 -8 -7 -7 -6 -6 -6 -6 -7 -7
-19 -19 -19 -18 -18 -18 -17 -15 -15 -15 -14 -14 -14 -13 -13 -13 -13 -13 -13 -13 -13 -13 -13 -12 -12 -12 -12 -12 -11 -10 -9 -9 -9 -9 -9 -8 -8 -9 -9 -8 -8 -7 -7
-20 -20 -20 -20 -19 -18 -16 -16 -15 -15 -14 -14 -14 -13 -13 -13 -13 -13 -13 -14 -14 -13 -13 -13 -13 -13 -13 -13 -13 -12 -12 -12 -11 -11 -11 -11 -11 -11 -11 -12 -11 -10 -10
-21 -20 -19 -18 -18 -17 -17 -16 -16 -15 -15 -15 -14 -14 -14 -14 -14 -14 -14 -14 -14 -14 -14 -14 -14 -14 -14 -14 -14 -13 -13 -14 -13 -13 -13 -13 -13 -13 -13 -13 -13 -13 -13
-20 -19 -18 -18 -18 -17 -17 -17 -16 -16 -16 -15 -15 -15 -15 -15 -14 -14 -14 -14 -14 -14 -15 -15 -15 -15 -15 -15 -15 -15 -15 -14 -14 -15 -15 -15 -14 -15 -14 -15 -15 -15 -14
-19 -19 -18 -18 -18 -18 -17 -17 -17 -17 -16 -16 -16 -15 -15 -15 -15 -15 -15 -15 -15 -15 -15 -16 -16 -16 -16 -16 -16 -16 -16 -16 -16 -16 -16 -16 -16 -16 -16 -16 -16 -16 -16
-18 -18 -18 -18 -18 -18 -17 -17 -17 -17 -17 -17 -17 -16 -16 -15 -15 -15 -15 -15 -15 -15 -15 -16 -16 -16 -17 -17 -17 -17 -17 -17 -17 -17 -17 -17 -17 -17 -17 -17 -17 -17 -17
-19 -19 -19 -18 -18 -18 -18 -18 -18 -18 -18 -17 -17 -17 -17 -17 -16 -16 -16 -16 -16 -16 -16 -17 -17 -17 -17 -18 -18 -18 -18 -18 -18 -18 -18 -18 -18 -18 -18 -18 -18 -18 -18
-19 -18 -19 -19 -18 -18 -18 -18 -18 -18 -18 -18 -18 -18 -18 -17 -17 -17 -17 -17 -16 -17 -17 -17 -17 -18 -18 -18 -18 -19 -19 -20 -20 -20 -20 -19 -19 -18 -19 -19 -19 -19 -20
-19 -19 -19 -19 -19 -19 -19 -19 -19 -18 -19 -18 -18 -18 -18 -18 -18 -18 -18 -17 -17 -17 -18 -18 -18 -19 -19 -19 -19 -20 -21 -21 -21 -21 -21 -21 -21 -20 -20 -20 -20 -20 -20
-19 -19 -19 -19 -19 -19 -19 -19 -19 -19 -19 -19 -19 -19 -19 -19 -18 -18 -18 -18 -18 -18 -18 -19 -19 -20 -20 -21 -21 -21 -22 -23 -24 -23 -23 -23 -23 -23 -22 -22 -22 -22 -21
-20 -20 -20 -19 -19 -19 -19 -19 -19 -19 -19 -19 -19 -19 -19 -19 -19 -19 -19 -19 -18 -19 -19 -19 -19 -20 -21 -22 -23 -23 -24 -26 -27 -27 -26 -25 -26 -25 -25 -24 -24 -23 -23
Height
2971 2975 2978 2982 2985 2991 2996 3001 3006 3009 3012 3016 3020 3025 3028 3033 3036 3039 3045 3052 3057 3058 3063 3067 3073 3077 3082 3086 3089 3092 3096 3099 3103 3109 3112 3117 3120 3126 3129 3133 3132 3139 3139
2963 2967 2970 2974 2977 2982 2987 2992 2996 2999 3003 3008 3013 3016 3021 3024 3030 3033 3036 3033 3049 3051 3048 3058 3065 3070 3075 3079 3083 3087 3090 3094 3098 3102 3109 3110 3115 3118 3121 3126 3129 3132 3135
2956 2960 2963 2966 2971 2975 2980 2985 2988 2992 2995 2999 3004 3009 3013 3018 3022 3025 3029 3033 3038 3034 3047 3048 3056 3061 3066 3072 3077 3081 3084 3089 3092 3097 3100 3102 3104 3108 3114 3117 3122 3124 3128
2951 2954 2957 2960 2963 2967 2972 2977 2981 2986 2989 2991 2995 2999 3005 3011 3013 3019 3021 3026 3029 3033 3040 3042 3045 3048 3057 3062 3070 3076 3080 3083 3086 3090 3093 3097 3101 3100 3108 3111 3115 3117 3120
2944 2947 2951 2954 2956 2958 2962 2967 2973 2978 2982 2985 2988 2992 2997 3001 3006 3011 3017 3019 3022 3026 3032 3032 3041 3042 3048 3053 3060 3061 3068 3075 3079 3083 3086 3090 3094 3098 3102 3105 3107 3111 3115
2937 2940 2945 2948 2951 2954 2956 2958 2963 2968 2972 2977 2981 2985 2989 2993 2999 3003 3008 3012 3015 3020 3023 3026 3030 3035 3040 3043 3047 3052 3059 3065 3070 3072 3077 3079 3086 3089 3094 3099 3102 3106 3108
2930 2934 2938 2941 2944 2947 2950 2952 2955 2958 2962 2965 2971 2974 2978 2984 2990 2995 2999 3003 3006 3011 3014 3018 3023 3026 3029 3035 3036 3042 3047 3053 3058 3063 3068 3074 3076 3081 3086 3091 3093 3097 3102
2925 2929 2933 2936 2940 2943 2946 2948 2950 2952 2955 2958 2961 2964 2968 2973 2978 2985 2991 2998 2997 3005 3005 3010 3014 3018 3020 3023 3029 3033 3036 3039 3046 3049 3059 3060 3065 3071 3077 3080 3083 3089 3091
2922 2927 2930 2933 2936 2939 2942 2945 2947 2948 2950 2952 2955 2958 2961 2965 2968 2973 2979 2986 2992 2993 2997 2999 3004 3007 3010 3014 3019 3022 3027 3029 3036 3041 3043 3048 3052 3061 3065 3068 3076 3079 3079
2921 2925 2928 2931 2934 2936 2938 2941 2943 2945 2947 2948 2950 2953 2956 2960 2964 2967 2971 2975 2980 2985 2989 2992 2995 2998 3003 3004 3007 3012 3017 3020 3025 3028 3033 3037 3042 3046 3050 3059 3065 3067 3071
2921 2925 2927 2929 2931 2933 2935 2937 2939 2941 2943 2945 2947 2949 2952 2955 2958 2961 2965 2968 2971 2975 2980 2984 2987 2991 2992 2997 3000 3004 3006 3010 3012 3016 3019 3025 3030 3033 3037 3046 3051 3055 3058
2923 2925 2926 2928 2930 2931 2933 2934 2936 2938 2940 2942 2945 2947 2949 2950 2952 2955 2958 2962 2965 2968 2971 2974 2979 2981 2984 2988 2992 2994 2998 2999 3001 3006 3008 3014 3017 3022 3027 3032 3036 3043 3046
2923 2924 2926 2928 2929 2930 2931 2933 2935 2937 2939 2941 2943 2944 2946 2947 2949 2950 2952 2954 2957 2960 2964 2966 2969 2972 2975 2978 2981 2984 2987 2990 2996 2997 3001 3004 3007 3011 3015 3021 3025 3027 3031
2923 2925 2925 2927 2928 2929 2930 2932 2933 2935 2938 2940 2942 2943 2944 2945 2946 2948 2950 2951 2952 2954 2956 2959 2961 2964 2967 2970 2972 2974 2976 2981 2984 2987 2991 2995 2999 3002 3005 3009 3014 3018 3018
2922 2924 2924 2925 2927 2928 2930 2932 2933 2934 2936 2937 2938 2940 2942 2943 2945 2946 2947 2948 2949 2951 2953 2954 2955 2958 2960 2962 2964 2966 2969 2972 2973 2976 2981 2984 2987 2990 2993 2997 3003 3007 3010
2923 2923 2924 2925 2926 2929 2930 2932 2931 2932 2933 2934 2935 2936 2937 2938 2940 2941 2943 2944 2946 2947 2949 2950 2952 2953 2955 2955 2956 2956 2959 2962 2965 2969 2972 2974 2975 2978 2982 2986 2990 2995 3000
2922 2924 2924 2925 2927 2929 2930 2931 2931 2930 2931 2931 2932 2932 2933 2934 2935 2936 2937 2939 2939 2941 2943 2944 2946 2948 2949 2951 2952 2952 2954 2955 2958 2961 2962 2965 2967 2970 2973 2976 2980 2984 2988
2924 2926 2928 2928 2929 2929 2929 2929 2928 2928 2929 2929 2930 2930 2930 2930 2931 2931 2931 2932 2933 2934 2935 2938 2940 2940 2942 2943 2944 2944 2949 2950 2951 2953 2954 2957 2958 2963 2966 2969 2973 2977 2981
2926 2926 2927 2928 2928 2928 2928 2928 2927 2927 2926 2927 2927 2926 2926 2927 2926 2926 2926 2926 2927 2927 2927 2929 2931 2934 2935 2935 2936 2934 2937 2941 2944 2946 2948 2948 2951 2954 2958 2960 2964 2967 2971
2926 2926 2926 2927 2927 2927 2927 2927 2926 2926 2926 2925 2924 2923 2923 2922 2921 2921 2921 2921 2920 2920 2920 2921 2922 2923 2926 2927 2928 2928 2927 2930 2932 2935 2938 2942 2944 2947 2949 2950 2955 2957 2963
2924 2924 2924 2924 2924 2924 2924 2924 2924 2924 2923 2923 2923 2922 2921 2920 2918 2917 2916 2916 2915 2915 2915 2914 2913 2914 2915 2916 2917 2919 2918 2919 2922 2924 2927 2930 2933 2936 2940 2942 2943 2947 2951
2922 2921 2921 2921 2921 2920 2920 2919 2919 2919 2918 2917 2917 2916 2916 2915 2915 2914 2913 2912 2911 2909 2909 2909 2908 2907 2907 2907 2908 2908 2908 2909 2910 2912 2915 2918 2922 2926 2929 2932 2934 2935 2937
2918 2918 2918 2918 2917 2917 2917 2916 2915 2914 2914 2913 2912 2911 2910 2909 2909 2908 2907 2907 2906 2904 2903 2902 2900 2899 2898 2897 2898 2899 2899 2900 2900 2901 2903 2906 2909 2914 2917 2919 2922 2924 2925
2913 2913 2913 2913 2912 2911 2911 2911 2910 2910 2909 2908 2907 2907 2906 2904 2903 2902 2900 2898 2897 2896 2895 2893 2893 2891 2890 2889 2889 2889 2890 2890 2891 2891 2891 2894 2895 2897 2901 2905 2909 2912 2914
2907 2906 2906 2906 2906 2905 2905 2904 2904 2904 2903 2902 2901 2901 2901 2900 2899 2898 2896 2894 2892 2891 2888 2886 2884 2883 2881 2881 2880 2881 2880 2881 2882 2882 2882 2883 2883 2885 2888 2890 2893 2896 2900
2899 2898 2897 2897 2897 2896 2897 2897 2896 2896 2897 2896 2896 2894 2894 2893 2892 2891 2889 2888 2887 2884 2883 2881 2878 2876 2874 2874 2872 2871 2873 2874 2874 2872 2870 2872 2873 2874 2875 2877 2880 2882 2886
Wind_Speed
49 47 44 42 41 41 40 40 39 41 41 43 46 42 43 46 42 54 52 56 45 41 39 38 36 33 34 35 35 35 35 35 32 28 28 28 30 39 38 33 37 41 36
44 44 43 42 41 39 38 39 37 40 40 39 43 49 48 40 46 50 35 40 56 46 45 42 43 39 38 39 38 38 38 37 36 35 32 32 33 35 39 40 45 47 44
38 39 38 37 37 37 33 32 30 29 32 38 41 47 45 52 49 42 45 45 56 41 47 50 43 40 40 40 40 41 40 39 40 38 36 33 39 54 32 39 36 40 39
32 31 33 36 34 32 31 29 30 31 32 32 37 41 48 48 49 58 51 47 46 42 48 57 56 54 45 44 45 43 41 41 41 40 40 36 32 38 44 41 39 43 37
32 34 31 30 29 32 37 40 37 35 37 36 36 35 43 52 46 48 50 52 54 53 50 44 51 50 49 54 52 49 46 43 43 43 41 43 35 37 44 37 48 64 51
25 27 29 27 31 34 34 35 35 34 34 37 40 42 42 40 53 53 51 54 51 57 50 48 48 53 59 44 51 61 55 48 47 51 42 47 41 43 42 40 41 44 42
22 23 22 24 22 23 22 22 24 26 29 34 41 44 47 46 46 48 52 50 47 49 46 45 47 52 52 51 57 55 53 59 57 54 52 54 45 46 42 39 48 35 38
20 19 18 19 18 18 18 17 18 20 24 28 32 35 37 43 49 52 48 44 40 50 44 49 57 60 53 48 61 65 55 51 63 59 56 54 49 49 43 46 41 44 42
16 17 17 18 17 17 15 16 17 17 18 19 23 26 30 32 36 40 44 45 49 43 43 42 51 49 54 52 51 51 54 54 59 53 54 59 46 53 50 50 49 46 35
17 17 17 17 16 16 16 15 15 14 13 13 15 18 21 24 27 30 32 36 42 43 47 35 43 43 48 51 52 51 56 58 62 57 56 54 56 57 51 57 53 53 48
16 16 16 16 16 16 16 15 14 13 13 12 13 14 15 17 20 22 24 27 29 34 36 44 39 39 36 46 43 46 48 52 51 59 59 60 62 64 58 58 64 55 59
15 15 15 15 15 15 14 13 12 12 11 11 11 11 12 13 15 16 18 19 22 25 26 30 33 36 41 41 38 39 40 46 46 51 54 58 62 63 64 65 59 60 63
12 12 13 13 13 12 11 10 9 8 7 7 7 7 7 8 10 11 13 15 16 18 19 23 26 30 30 32 35 38 42 41 43 46 49 53 57 59 61 60 65 70 60
10 11 11 9 8 8 7 6 5 5 6 6 6 7 7 7 8 9 9 11 13 15 16 18 20 22 24 28 32 35 36 40 42 44 46 47 51 55 55 55 55 57 58
7 8 7 7 5 3 3 3 4 4 5 5 6 7 8 8 9 10 11 11 12 12 14 15 17 19 21 23 25 28 32 35 36 39 41 42 44 48 51 51 53 52 52
6 6 5 5 4 2 2 4 4 4 5 6 7 9 10 10 11 12 12 13 14 15 15 15 17 18 20 21 24 27 28 29 31 34 36 38 39 37 39 44 48 53 55
6 4 4 3 3 2 3 4 4 5 6 7 9 11 12 13 14 15 16 16 17 18 19 19 18 19 21 22 24 26 25 26 28 29 30 31 34 35 34 35 37 45 49
6 5 4 5 4 4 2 2 1 1 3 5 7 10 12 14 16 17 19 20 21 21 22 21 22 23 24 25 27 31 28 28 28 30 30 31 31 32 33 34 35 36 40
6 5 5 4 5 4 3 2 1 2 3 5 6 7 9 10 13 15 18 20 22 24 25 25 25 26 28 29 30 33 32 32 32 32 32 33 34 34 35 36 38 38 39
3 3 3 2 1 1 1 1 2 3 4 5 6 7 9 10 11 12 14 16 19 22 24 26 27 28 28 30 33 36 38 38 37 36 36 35 35 36 36 38 40 42 42
4 5 5 5 5 4 5 5 6 7 7 5 5 5 6 7 9 10 12 14 15 18 20 23 26 28 29 30 32 35 40 42 42 42 41 40 39 39 38 39 40 41 42
8 9 9 9 10 9 9 10 10 10 10 10 10 9 9 8 9 10 11 12 14 16 18 20 22 25 27 29 30 34 38 41 45 46 47 46 44 43 42 41 41 42 41
12 12 12 12 13 13 12 13 13 13 13 14 13 12 13 12 12 13 13 14 15 16 18 19 22 24 27 29 32 32 34 38 41 44 46 46 48 47 44 44 44 43 43
16 17 17 16 16 17 16 16 16 15 15 16 16 15 15 14 15 15 16 18 19 20 21 22 23 24 26 28 31 33 32 32 35 39 43 44 45 47 47 47 45 45 46
21 22 21 21 20 21 19 20 20 19 17 18 19 18 16 16 16 16 16 18 20 21 22 24 25 26 27 28 30 28 30 29 29 31 33 36 38 41 41 43 45 45 45
23 24 24 25 24 24 23 23 24 23 21 20 21 21 18 19 18 17 18 19 19 21 23 24 25 25 27 26 26 27 26 21 19 23 28 29 28 31 33 36 39 42 43
Wind_Direction
234 233 231 234 240 245 248 251 246 241 241 234 223 216 227 225 223 230 228 237 221 217 218 224 220 220 218 212 210 207 206 209 209 212 211 210 213 219 217 209 205 209 231
225 227 231 236 238 238 244 250 246 240 238 237 229 220 215 220 232 229 223 235 224 224 209 224 220 221 218 215 214 213 212 214 215 213 216 221 225 221 224 228 231 230 229
218 221 225 233 240 242 237 238 243 241 238 236 233 226 225 226 225 227 232 227 226 243 226 216 218 223 217 216 220 220 216 220 222 218 221 218 228 209 235 233 223 211 227
211 214 225 229 229 232 237 237 238 243 242 243 237 233 225 229 230 231 234 241 224 226 227 238 233 209 217 212 216 220 225 225 228 226 224 230 222 235 240 222 234 225 234
221 224 228 236 242 253 256 252 247 242 240 244 243 239 234 227 235 230 234 235 237 245 238 230 224 219 222 219 214 213 223 221 226 232 232 227 228 232 224 255 240 235 236
221 224 229 240 243 245 247 247 244 242 232 233 239 242 245 240 235 239 240 240 239 243 242 228 226 222 226 233 222 225 221 226 228 223 224 218 237 232 225 235 218 229 231
219 229 235 240 243 242 240 241 241 238 233 227 231 231 230 241 246 241 237 243 244 239 240 235 241 228 222 241 233 221 221 224 226 224 235 227 237 233 235 238 234 248 247
218 223 221 227 230 238 239 240 239 236 233 231 231 232 232 232 233 239 241 238 238 245 247 247 238 243 235 232 239 229 217 224 223 220 225 229 225 239 232 230 244 240 240
203 207 210 212 213 217 223 229 229 230 228 228 230 232 233 234 234 236 237 240 242 240 244 243 244 244 243 241 230 232 231 223 229 236 223 222 233 223 235 228 236 235 236
195 197 196 196 196 194 201 207 208 212 215 216 219 224 230 233 235 237 237 238 241 247 245 247 245 243 248 250 245 242 237 240 234 231 237 235 230 230 226 236 236 223 230
184 183 181 180 178 178 183 184 190 196 202 208 211 213 216 220 227 231 232 235 238 239 244 245 250 248 250 246 246 244 240 240 234 236 229 232 230 232 221 229 233 240 238
173 174 176 174 171 168 166 170 173 178 187 195 204 209 213 218 223 226 230 231 232 233 235 239 241 246 249 252 248 253 254 247 245 238 235 234 237 236 232 229 229 233 229
173 174 175 171 167 164 165 165 165 174 186 196 205 212 219 224 228 230 232 236 238 237 239 238 239 240 243 245 243 243 246 248 253 253 249 247 239 234 235 238 239 231 225
175 183 179 171 165 165 163 166 177 194 207 218 224 230 235 241 246 248 248 247 243 241 239 238 241 240 237 239 242 244 244 243 244 243 245 245 247 247 243 241 239 235 227
182 183 169 166 158 151 158 194 195 215 235 246 252 258 263 265 262 259 259 259 256 257 258 256 250 244 242 241 239 239 241 244 245 243 242 243 243 245 245 244 244 241 237
194 162 146 141 136 159 196 231 220 233 252 261 268 273 275 273 272 273 271 268 266 263 257 254 255 257 257 253 248 244 245 246 246 246 248 248 245 242 242 241 241 243 239
136 124 124 134 148 186 212 221 228 236 250 262 269 273 276 279 281 281 279 275 271 268 267 263 257 256 257 258 259 257 251 248 249 251 252 251 250 249 249 250 246 239 233
128 139 158 147 145 150 163 177 200 229 256 266 270 273 275 275 277 277 279 280 279 275 271 268 265 261 257 255 255 259 255 251 249 248 248 249 251 251 246 244 244 245 245
143 146 147 145 135 132 126 100 360 334 320 311 308 301 295 287 282 280 279 277 277 278 277 274 268 263 260 259 257 259 258 255 252 248 244 244 243 243 244 244 243 240 241
195 199 194 204 193 220 249 269 277 293 299 304 309 310 307 305 300 294 288 285 284 282 281 279 275 271 263 259 258 259 260 259 257 254 251 247 243 242 240 241 241 242 242
264 272 276 276 276 274 276 279 282 286 289 294 301 305 307 311 309 307 304 299 293 288 285 284 283 282 277 269 262 258 258 259 259 257 256 252 249 246 241 239 241 242 243
278 277 278 281 282 283 286 288 290 293 295 300 305 309 312 318 319 318 317 312 307 302 297 291 285 281 279 277 270 264 260 259 259 258 257 255 252 252 249 246 246 247 241
276 273 270 271 274 274 274 277 280 283 289 293 295 298 302 308 315 318 322 320 319 314 308 301 295 291 287 282 277 272 265 261 260 260 260 260 260 257 253 250 246 245 245
277 275 274 271 271 272 271 271 273 276 281 285 287 289 292 298 306 311 315 318 321 323 318 310 302 296 290 284 279 277 275 268 263 261 260 260 258 256 255 254 250 246 243
276 275 274 271 269 269 270 270 270 271 272 276 280 281 284 287 290 295 301 307 310 315 316 313 308 301 297 289 286 281 277 275 269 264 262 261 260 258 255 254 253 249 244
274 274 272 271 270 270 269 268 268 267 267 268 272 275 277 280 284 289 295 297 302 307 310 310 306 300 296 292 288 283 276 274 273 263 261 254 259 257 254 252 251 251 249